OreSat0
1 52017U 22026K   22188.50377266  .00003410  00000-0  18355-3 0  9997
2 52017  97.5021 188.0921 0026441 201.0097 159.0051 15.15224073 17229
Planetum 1
1 52738U 22057G   22188.50396359  .00003177  00000-0  18821-3 0  9993
2 52738  97.5140 302.8304 0010036 102.8795 257.3557 15.12078946  6468
Foresail-1
1 52766U 22057AL  22188.53226092  .00003076  00000-0  17562-3 0  9992
2 52766  97.5239 303.0018 0015326  86.0251 274.2732 15.13385820  6477
SNUGLITE 2
1 52899U 22065F   22188.74155459  .00000441  00000-0  10485-3 0  9999
2 52899  98.0230 339.4599 0007363 204.6426 155.4486 14.58344206   653
